Miscellaneous Local Product
Issued by NWS Hastings, NE

Home | Current Version | Previous Version | Graphics & Text | Print | Product List | Glossary On
Versions: 1 2 3 4 5 6 7 8 9 10 11 12 13 14 15 16 17 18 19 20 21 22 23 24 25 26 27 28 29 30 31 32 33 34 35 36 37 38 39 40 41 42 43 44 45 46 47 48 49 50
809
AXUS43 KGID 112102
MISGRI

GID CWA HOURLY WEATHER ROUNDUP
NATIONAL WEATHER SERVICE HASTINGS NE
300 PM CST THU FEB 11 2016

NOTE: "FAIR" INDICATES FEW OR NO CLOUDS BELOW 12,000 FEET WITH NO
SIGNIFICANT WEATHER AND/OR OBSTRUCTIONS TO VISIBILITY.

...SOUTH CENTRAL NEBRASKA...

CITY           SKY/WX    TMP DP  RH WIND       PRES   REMARKS
GRAND ISLAND   CLOUDY    28  24  85 S17       30.10F WCI  16
HASTINGS       CLOUDY    28  23  81 S12       30.09F WCI  18
KEARNEY        CLOUDY    30  27  86 S14       30.08F WCI  20
ORD            CLOUDY    32  29  88 SW16      30.03F WCI  21
YORK           CLOUDY    28  25  86 S17       30.10F WCI  16
AURORA         CLOUDY    29  25  85 S16       30.09F WCI  17
LEXINGTON      PTSUNNY   35  30  83 SW8       30.07S WCI  28
HOLDREGE       CLOUDY    33  29  87 S12       30.08F WCI  24
HEBRON         CLOUDY    27  24  89 S10       30.16F FOG     WCI  18

...NEBRASKA PANHANDLE...

CITY           SKY/WX    TMP DP  RH WIND       PRES   REMARKS
CHADRON        MOSUNNY   58  29  33 NW25G36   30.05F
ALLIANCE       CLOUDY    50  34  54 W9        30.06S
SCOTTSBLUFF    CLOUDY    59  28  30 MISG      30.09S
SIDNEY         CLOUDY    54  31  41 NW8       30.10F

...WESTERN AND NORTH CENTRAL NEBRASKA...

CITY           SKY/WX    TMP DP  RH WIND       PRES   REMARKS
VALENTINE      SUNNY     53  32  44 NW20G28   29.97S
AINSWORTH      SUNNY     53  32  44 NW15G21   29.97F
ONEILL         CLOUDY    30  29  96 S12       30.04F FOG     WCI  20
BROKEN BOW     SUNNY     38  31  76 SW12      30.03F WCI  30
IMPERIAL       CLOUDY    51  31  46 NW13G22   30.05F
NORTH PLATTE   SUNNY     46  32  58 SW5       30.03F
MCCOOK         SUNNY     46  34  62 SW5       30.05F

...EASTERN NEBRASKA...

CITY           SKY/WX    TMP DP  RH WIND       PRES   REMARKS
NORFOLK        CLOUDY    26  21  81 S9        30.11S WCI  17
SO SIOUX CITY  FLURRIES  19  12  74 SE9       30.19F WCI   8
TEKAMAH        CLOUDY    20  13  74 SE7       30.20F WCI  11
COLUMBUS       CLOUDY    27  14  59 SE10      30.13S WCI  17
ALBION         CLOUDY    28  24  85 S13       30.09R WCI  17
OMAHA EPPLEY   FLURRIES  24  17  74 SE6       30.19F WCI  17
OFFUTT AFB     FLURRIES  28  20  71 SE7       30.18F WCI  21
MILLARD        LGT SNOW  26  19  75 SE6       30.18F WCI  19
LINCOLN        CLOUDY    27  22  81 S10       30.15F WCI  17
NEBRASKA CITY  PTSUNNY   32  20  61 S10       30.17F WCI  23
BEATRICE       CLOUDY    28  22  78 SW9       30.17F WCI  19
FALLS CITY     CLOUDY    35  20  54 SE9       30.20F WCI  28

...NORTHERN KANSAS...

CITY           SKY/WX    TMP DP  RH WIND       PRES   REMARKS
GOODLAND       CLOUDY    59  31  34 W16       30.07F
HILL CITY      SUNNY     46  34  62 S10       30.08F
NORTON         CLEAR     39  28  65 S12G17    30.06F WCI  32
SMITH CENTER   SUNNY     34  28  80 S9        30.12F WCI  26
BELOIT         CLOUDY    30  25  80 SE7       30.15F WCI  23
HAYS           SUNNY     46  28  49 S9        30.11F
RUSSELL        SUNNY     41  30  65 S8        30.11F
CONCORDIA      CLOUDY    29  24  82 S8        30.17F WCI  21
SALINA         CLOUDY    39  25  57 VRB5      30.17F
TOPEKA         MOSUNNY   39  21  48 SE7       30.19F WCI  34



USA.gov is the U.S. government's official web portal to all federal, state and local government web resources and services.